Regional Weather Roundup
Issued by NWS

Home | Current Version | Previous Version | Graphics & Text | Print | Product List | Glossary On
Versions: 1 2 3 4 5 6 7 8 9 10 11 12 13 14 15 16 17 18 19 20 21 22 23 24 25 26 27 28 29 30 31 32 33 34 35 36 37 38 39 40 41 42 43 44 45 46 47 48 49 50
767
ASUS43 KFSD 190502
RWRSD

WEATHER ROUNDUP FOR SOUTH DAKOTA
NATIONAL WEATHER SERVICE SIOUX FALLS SD
1100 PM CST SUN FEB 18 2018

NOTE: "FAIR" INDICATES FEW OR NO CLOUDS BELOW 12,000 FEET WITH NO
SIGNIFICANT WEATHER AND/OR OBSTRUCTIONS TO VISIBILITY.


SDZ001>005-009-010-012>017-190600-
NORTHWEST AND NORTH CENTRAL SOUTH DAKOTA

CITY           SKY/WX    TMP DP  RH WIND       PRES   REMARKS
BUFFALO          N/A      5  -1  76 NE13      29.92R WCI -12
FAITH            N/A      5   3  91 N17       30.01R WCI -14
MOBRIDGE       CLOUDY    10   4  76 N17G24    30.00R WCI  -8
$$

SDZ012>016-024>037-041>051-057-063-072>074-190600-
SOUTHWEST AND SOUTH CENTRAL SOUTH DAKOTA

CITY           SKY/WX    TMP DP  RH WIND       PRES   REMARKS
RAPID CTY ARPT CLOUDY     5   2  87 N22       29.92F FOG     WCI -16
PIERRE         LGT SNOW  10   7  87 N20G30    29.99R FOG     WCI  -9
CUSTER         LGT SNOW   2  -3  80 NE9       29.65F WCI -13
ELLSWORTH AFB  CLOUDY     6   3  88 N16       29.91  BLWGSNOWWCI -13
PHILIP         LGT SNOW  10   6  84 N21       29.97F FOG     WCI  -9
PINE RIDGE     FLURRIES   8   3  80 N18G26    29.83F WCI -11
SPEARFISH      LGT SNOW   3   0  85 N5        29.90F WCI  -6
WINNER         FLURRIES  16  11  80 N28G35    29.83F WCI  -4
$$

SDZ004>011-016>023-039-040-190600-
NORTHEAST SOUTH DAKOTA

CITY           SKY/WX    TMP DP  RH WIND       PRES   REMARKS
ABERDEEN       CLOUDY    11   5  77 N21G28    29.98S WCI  -8
WATERTOWN      CLOUDY    11   8  88 N18       29.85S WCI  -7
BROOKINGS      PTCLDY    15  12  88 N16       29.81R WCI  -1
SISSETON         N/A     12   7  80 N22       29.94R WCI  -7
$$

SDZ017-020-022-023-036>040-048>070-190600-
SOUTHEAST SOUTH DAKOTA

CITY           SKY/WX    TMP DP  RH WIND       PRES   REMARKS
SIOUX FALLS    CLOUDY    21  16  81 N18G24    29.77R WCI   6
HURON          CLOUDY    13   7  77 N25       29.92R WCI  -7
CHAMBERLAIN    CLOUDY    16  11  81 NW21G32   29.88F WCI  -2
MITCHELL       MOCLDY    16  11  80 N30G36    29.84F WCI  -4
YANKTON        CLOUDY    26  21  81 N22G28    29.76R WCI  12
$$

ABBREVIATIONS USED IN REMARKS
   TC - TEMPERATURE IN CELSIUS
  WCI - WIND CHILL INDEX
   HX - HEAT INDEX
  VSB - VISIBILITY





USA.gov is the U.S. government's official web portal to all federal, state and local government web resources and services.